GSAT0225 (GALILEO 29)

Last updated on Sat Apr 11 2026 00:02:39 GMT+0000 (Coordinated Universal Time)

1 59598U 24079A 26098.60771326 .00000043 00000+0 00000+0 0 9990 2 59598 55.0724 103.0226 0002851 273.7535 89.3235 1.70474859 12135
UTC large
Height (km)
Speed (km/s)
/
Latitude / Longitude
Inclination (degrees)
Orbital Period (minutes)
Azimuth
Elevation
Range (km)
Doppler Factor

Next 0 passes for location: London (51.5072 / 0.1276)

Sorry there are no passes over London.